TimeEDT,TemperatureF,Dew PointF,Humidity,Sea Level PressureIn,VisibilityMPH,Wind Direction,Wind SpeedMPH,Gust SpeedMPH,PrecipitationIn,Events,Conditions,WindDirDegrees,DateUTC
12:15 AM,62.6,61.7,97,30.03,2.5,Calm,Calm,-,N/A,,Clear,0,2013-09-08 04:15:00
12:35 AM,62.6,61.7,97,30.02,4.0,Calm,Calm,-,N/A,,Clear,0,2013-09-08 04:35:00
12:55 AM,62.6,61.9,97,30.03,4.0,Calm,Calm,-,N/A,,Scattered Clouds,0,2013-09-08 04:55:00
1:15 AM,62.2,61.3,97,30.02,3.0,Calm,Calm,-,N/A,,Scattered Clouds,0,2013-09-08 05:15:00
1:35 AM,61.0,60.1,97,30.03,4.0,Calm,Calm,-,N/A,,Clear,0,2013-09-08 05:35:00
1:55 AM,60.8,60.1,97,30.02,3.0,Calm,Calm,-,N/A,,Clear,0,2013-09-08 05:55:00
2:15 AM,60.1,59.2,97,30.02,2.5,Calm,Calm,-,N/A,,Clear,0,2013-09-08 06:15:00
2:35 AM,60.3,59.5,97,30.02,1.0,Calm,Calm,-,N/A,,Mostly Cloudy,0,2013-09-08 06:35:00
2:55 AM,59.2,58.6,98,30.02,3.0,Calm,Calm,-,N/A,,Scattered Clouds,0,2013-09-08 06:55:00
3:15 AM,59.4,58.8,98,30.02,3.0,Calm,Calm,-,N/A,,Clear,0,2013-09-08 07:15:00
3:35 AM,59.0,58.3,97,30.02,3.0,Calm,Calm,-,N/A,,Clear,0,2013-09-08 07:35:00
3:55 AM,58.3,57.6,97,30.02,2.5,Calm,Calm,-,N/A,,Scattered Clouds,0,2013-09-08 07:55:00
4:15 AM,57.7,57.0,97,30.01,2.5,Calm,Calm,-,N/A,,Clear,0,2013-09-08 08:15:00
4:35 AM,57.6,56.8,97,30.01,3.0,Calm,Calm,-,N/A,,Scattered Clouds,0,2013-09-08 08:35:00
4:55 AM,57.2,56.5,97,30.01,2.5,Calm,Calm,-,N/A,,Scattered Clouds,0,2013-09-08 08:55:00
5:15 AM,57.9,57.4,98,30.01,3.0,Calm,Calm,-,N/A,,Clear,0,2013-09-08 09:15:00
5:35 AM,57.6,57.0,98,30.01,5.0,Calm,Calm,-,N/A,,Clear,0,2013-09-08 09:35:00
5:55 AM,57.9,57.0,97,30.01,5.0,Calm,Calm,-,N/A,,Clear,0,2013-09-08 09:55:00
6:15 AM,58.1,57.4,97,30.02,5.0,Calm,Calm,-,N/A,,Clear,0,2013-09-08 10:15:00
6:35 AM,58.1,57.6,98,30.02,4.0,Calm,Calm,-,N/A,,Clear,0,2013-09-08 10:35:00
6:55 AM,58.1,57.4,97,30.01,4.0,Calm,Calm,-,N/A,,Clear,0,2013-09-08 10:55:00
7:15 AM,58.1,57.2,97,30.02,3.0,Calm,Calm,-,N/A,,Clear,0,2013-09-08 11:15:00
7:35 AM,58.3,57.6,97,30.02,5.0,Calm,Calm,-,N/A,,Clear,0,2013-09-08 11:35:00
7:55 AM,59.9,59.0,97,30.02,5.0,Calm,Calm,-,N/A,,Clear,0,2013-09-08 11:55:00
8:15 AM,62.6,60.4,93,30.02,10.0,Calm,Calm,-,N/A,,Clear,0,2013-09-08 12:15:00
8:35 AM,64.2,61.9,92,30.02,10.0,Calm,Calm,-,N/A,,Clear,0,2013-09-08 12:35:00
8:55 AM,67.5,63.3,87,30.02,10.0,Calm,Calm,-,N/A,,Clear,0,2013-09-08 12:55:00
9:15 AM,70.5,63.7,79,30.02,10.0,Calm,Calm,-,N/A,,Clear,0,2013-09-08 13:15:00
9:35 AM,73.9,64.4,72,30.02,10.0,Calm,Calm,-,N/A,,Clear,0,2013-09-08 13:35:00
9:55 AM,76.3,64.0,66,30.02,10.0,NNW,4.6,-,N/A,,Clear,340,2013-09-08 13:55:00
10:15 AM,77.5,64.2,63,30.02,10.0,North,5.8,-,N/A,,Clear,360,2013-09-08 14:15:00
10:35 AM,79.3,65.1,62,30.02,10.0,Calm,Calm,-,N/A,,Clear,0,2013-09-08 14:35:00
10:55 AM,80.8,64.8,58,30.02,10.0,Calm,Calm,-,N/A,,Clear,0,2013-09-08 14:55:00
11:15 AM,81.9,65.1,57,30.02,10.0,North,5.8,-,N/A,,Clear,360,2013-09-08 15:15:00
11:35 AM,83.1,65.1,54,30.02,10.0,NNW,8.1,-,N/A,,Mostly Cloudy,340,2013-09-08 15:35:00
11:55 AM,81.9,65.7,58,30.02,10.0,Calm,Calm,-,N/A,,Mostly Cloudy,0,2013-09-08 15:55:00
12:15 PM,84.4,65.3,53,30.01,10.0,Calm,Calm,-,N/A,,Scattered Clouds,0,2013-09-08 16:15:00
12:35 PM,85.3,65.8,52,30.01,10.0,ENE,5.8,-,N/A,,Clear,70,2013-09-08 16:35:00
12:55 PM,85.6,65.3,50,30.00,10.0,NE,3.5,-,N/A,,Clear,50,2013-09-08 16:55:00
1:15 PM,86.5,64.8,48,30.00,10.0,ENE,4.6,-,N/A,,Scattered Clouds,70,2013-09-08 17:15:00
1:35 PM,86.2,62.8,45,29.99,10.0,Calm,Calm,-,N/A,,Scattered Clouds,0,2013-09-08 17:35:00
1:55 PM,87.6,63.7,45,30.00,10.0,East,4.6,-,N/A,,Mostly Cloudy,90,2013-09-08 17:55:00
2:15 PM,85.1,65.5,52,30.00,10.0,NE,3.5,-,N/A,,Overcast,40,2013-09-08 18:15:00
2:35 PM,84.0,65.8,54,29.99,10.0,Calm,Calm,-,N/A,,Overcast,0,2013-09-08 18:35:00
2:55 PM,84.7,65.5,52,30.00,10.0,East,3.5,-,N/A,,Mostly Cloudy,90,2013-09-08 18:55:00
3:15 PM,85.8,63.7,47,29.99,10.0,Calm,Calm,-,N/A,,Mostly Cloudy,0,2013-09-08 19:15:00
3:35 PM,86.0,64.4,48,29.98,10.0,Calm,Calm,-,N/A,,Mostly Cloudy,0,2013-09-08 19:35:00
3:55 PM,86.9,63.0,45,29.98,10.0,Calm,Calm,-,N/A,,Scattered Clouds,0,2013-09-08 19:55:00
4:15 PM,87.4,64.0,46,29.98,10.0,Calm,Calm,-,N/A,,Clear,0,2013-09-08 20:15:00
4:35 PM,87.3,63.1,44,29.98,10.0,North,3.5,-,N/A,,Clear,10,2013-09-08 20:35:00
4:55 PM,86.5,66.0,50,29.98,10.0,Calm,Calm,-,N/A,,Scattered Clouds,0,2013-09-08 20:55:00
5:15 PM,86.9,65.5,49,29.98,10.0,Calm,Calm,-,N/A,,Scattered Clouds,0,2013-09-08 21:15:00
5:35 PM,86.2,66.0,51,29.97,10.0,Calm,Calm,-,N/A,,Mostly Cloudy,0,2013-09-08 21:35:00
5:55 PM,85.6,66.4,52,29.97,10.0,Calm,Calm,-,N/A,,Scattered Clouds,0,2013-09-08 21:55:00
6:15 PM,84.2,68.2,58,29.98,10.0,Calm,Calm,-,N/A,,Clear,0,2013-09-08 22:15:00
6:35 PM,81.1,71.4,72,29.99,10.0,Calm,Calm,-,N/A,,Clear,0,2013-09-08 22:35:00
6:55 PM,78.4,72.3,81,29.99,10.0,Calm,Calm,-,N/A,,Clear,0,2013-09-08 22:55:00
7:15 PM,77.4,72.1,84,29.99,10.0,Calm,Calm,-,N/A,,Mostly Cloudy,0,2013-09-08 23:15:00
7:35 PM,76.6,71.8,85,29.99,10.0,Calm,Calm,-,N/A,,Overcast,0,2013-09-08 23:35:00
7:55 PM,74.8,71.6,90,29.99,7.0,Calm,Calm,-,N/A,,Mostly Cloudy,0,2013-09-08 23:55:00
8:15 PM,73.6,70.7,91,30.00,7.0,Calm,Calm,-,N/A,,Clear,0,2013-09-09 00:15:00
8:35 PM,72.0,70.0,93,30.00,5.0,Calm,Calm,-,N/A,,Scattered Clouds,0,2013-09-09 00:35:00
8:55 PM,71.4,70.0,95,30.01,4.0,Calm,Calm,-,N/A,,Clear,0,2013-09-09 00:55:00
9:15 PM,71.1,69.3,94,30.02,3.0,Calm,Calm,-,N/A,,Clear,0,2013-09-09 01:15:00
9:35 PM,70.7,68.9,94,30.02,3.0,Calm,Calm,-,N/A,,Clear,0,2013-09-09 01:35:00
9:55 PM,69.8,68.4,95,30.03,3.0,Calm,Calm,-,N/A,,Clear,0,2013-09-09 01:55:00
10:15 PM,69.6,68.2,95,30.04,2.5,Calm,Calm,-,N/A,,Clear,0,2013-09-09 02:15:00
10:35 PM,69.8,68.5,96,30.04,2.0,Calm,Calm,-,N/A,,Clear,0,2013-09-09 02:35:00
10:55 PM,68.9,67.5,95,30.05,2.5,Calm,Calm,-,N/A,,Clear,0,2013-09-09 02:55:00
11:15 PM,68.0,66.7,96,30.05,1.2,Calm,Calm,-,N/A,,Mist,0,2013-09-09 03:15:00
11:35 PM,68.0,66.6,95,30.05,1.2,Calm,Calm,-,N/A,,Mist,0,2013-09-09 03:35:00
11:55 PM,67.1,66.0,96,30.06,1.0,Calm,Calm,-,N/A,,Mist,0,2013-09-09 03:55:00